Meteo Giornale » Osservazioni meteo Australia » Brisbane M O
ore: 07:30 - Osservazioni Meteo Brisbane M O
Lat. 27° 23' S Lon. 153° 6' E Alt. 4 metri s.l.m.
15 °C
Pioggia
Temp. 24 Ore
13 °C
22 °C
Sud/Sud-Ovest
14.8 Km/h
Dew point 14 °C
Umidità 93 %
Visibilità 10 Km
Il sole sorge alle ore 06:01
Il sole tramonta alle ore 17:34
| Data e Ora | Cielo e Fenomeni | T °C | DP °C | Um. % | Pres. hPa | Vis. km | Vento km/h | |
|---|---|---|---|---|---|---|---|---|
| Oggi h: 07:30 | Pioggia | 15 | 14 | 93 | 1029 | 10 | S/SO 14.8 | |
| Oggi h: 07:00 | Pioggia | 14 | 14 | 100 | 1029 | 10 | S/SO 14.8 | |
| Oggi h: 06:30 | Pioggia | 14 | 13 | 93 | 1029 | 10 | S/SO 11.1 | |
| Oggi h: 06:00 | Pioggia | 14 | 13 | 93 | 1028 | 10 | S/SO 11.1 | |
| Oggi h: 05:30 | Coperto | 15 | 13 | 87 | 1028 | 10 | S/SO 13 | |
| Oggi h: 05:00 | Coperto | 15 | 13 | 87 | 1027 | 10 | S/SO 13 | |
| Oggi h: 04:30 | Coperto | 15 | 13 | 87 | 1027 | 10 | S/SO 13 | |
| Oggi h: 04:00 | Nuvoloso | 14 | 12 | 87 | 1027 | 10 | S/SO 11.1 | |
| Oggi h: 03:30 | Sereno | 13 | 12 | 93 | 1027 | 10 | S/SO 14.8 | |
| Oggi h: 03:00 | Sereno | 13 | 12 | 93 | 1027 | 10 | SO 13 | |
| Oggi h: 02:30 | Sereno | 14 | 13 | 93 | 1028 | 10 | S/SO 13 | |
| Oggi h: 02:00 | Sereno | 15 | 13 | 87 | 1028 | 10 | S/SO 9.3 | |
| Oggi h: 01:30 | Nuvoloso | 15 | 13 | 87 | 1028 | 10 | S/SO 9.3 | |
| Oggi h: 01:00 | Coperto | 16 | 14 | 87 | 1028 | 10 | S 9.3 | |
| Oggi h: 00:30 | Molto Nuvoloso | 16 | 14 | 87 | 1029 | 10 | S 9.3 | |
| Oggi h: 00:00 | Nuvoloso | 16 | 13 | 82 | 1029 | 10 | S 9.3 | |
| Ieri h: 23:30 | Poco Nuvoloso | 17 | 14 | 82 | 1029 | 10 | S 7.4 | |
| Ieri h: 23:00 | Coperto | 18 | 15 | 82 | 1029 | 10 | S 7.4 | |
| Ieri h: 22:30 | Coperto | 18 | 15 | 82 | 1030 | 10 | S/SE 7.4 | |
| Ieri h: 22:00 | Coperto | 18 | 14 | 77 | 1030 | 10 | S/SE 9.3 | |
| Ieri h: 21:30 | Coperto | 18 | 14 | 77 | 1030 | 10 | SE 7.4 | |
| Ieri h: 21:00 | Coperto | 18 | 16 | 88 | 1030 | 10 | S/SE 7.4 | |
| Ieri h: 20:30 | Molto Nuvoloso | 17 | 16 | 93 | 1029 | 10 | S 7.4 | |
| Ieri h: 20:00 | Coperto | 18 | 16 | 88 | 1029 | 10 | N 5.5 | |
| Ieri h: 19:30 | Pioggia | 18 | 16 | 88 | 1029 | 10 | E 7.4 | |
| Ieri h: 19:00 | Molto Nuvoloso | 18 | 15 | 82 | 1029 | 10 | E 7.4 | |
| Ieri h: 18:30 | Molto Nuvoloso | 18 | 15 | 82 | 1029 | 10 | N 0 | |
| Ieri h: 18:00 | Molto Nuvoloso | 18 | 15 | 82 | 1028 | 10 | E/NE 7.4 | |
| Ieri h: 17:30 | Coperto | 18 | 15 | 82 | 1028 | 10 | E/NE 11.1 | |
| Ieri h: 17:00 | Coperto | 19 | 15 | 77 | 1028 | 10 | E 11.1 | |
| Ieri h: 16:30 | Coperto | 19 | 14 | 72 | 1028 | 10 | E 16.7 | |
| Ieri h: 16:00 | Molto Nuvoloso | 19 | 14 | 72 | 1027 | 10 | E/SE 16.7 | |
| Ieri h: 15:30 | Molto Nuvoloso | 20 | 14 | 68 | 1027 | 10 | E/SE 18.5 | |
| Ieri h: 15:00 | Molto Nuvoloso | 20 | 15 | 72 | 1028 | 10 | E/SE 20.3 | |
| Ieri h: 14:30 | Molto Nuvoloso | 21 | 14 | 64 | 1028 | 10 | SE 20.3 | |
| Ieri h: 14:00 | Molto Nuvoloso | 21 | 14 | 64 | 1028 | 10 | E/SE 18.5 | |
| Ieri h: 13:30 | Molto Nuvoloso | 20 | 15 | 72 | 1028 | 10 | E/SE 16.7 | |
| Ieri h: 13:00 | Molto Nuvoloso | 21 | 15 | 68 | 1028 | 10 | E/SE 24 | |
| Ieri h: 12:30 | Molto Nuvoloso | 21 | 14 | 64 | 1028 | 10 | E/SE 20.3 | |
| Ieri h: 12:00 | Molto Nuvoloso | 22 | 14 | 60 | 1028 | 10 | E/SE 18.5 | |
| Ieri h: 11:30 | Nuvoloso | 22 | 13 | 56 | 1029 | 10 | E/SE 13 | |
| Ieri h: 11:00 | Nuvoloso | 22 | 13 | 56 | 1029 | 10 | E 13 | |
| Ieri h: 10:30 | Poco Nuvoloso | 22 | 12 | 53 | 1029 | 10 | E/SE 13 | |
| Ieri h: 10:00 | Poco Nuvoloso | 22 | 13 | 56 | 1029 | 10 | SE 13 | |
| Ieri h: 09:30 | Poco Nuvoloso | 21 | 12 | 56 | 1029 | 10 | S 11.1 | |
| Ieri h: 09:00 | Poco Nuvoloso | 20 | 12 | 59 | 1030 | 10 | S 11.1 | |



